Weather History for Winfield, KS

Change the Weather History Date:

Monday, February 18, 2013

  Actual Average Record
Temperature  
Mean Temperature 42 °F -  
Max Temperature 55 °F 49 °F 73 °F (2014)
Min Temperature 30 °F 30 °F 7 °F (2006)
Degree Days  
Heating Degree Days 22    
Moisture  
Dew Point 32 °F    
Average Humidity 54    
Maximum Humidity 77    
Minimum Humidity 36    
Precipitation  
Precipitation 0.00 in - - ()
Sea Level Pressure  
Sea Level Pressure 29.77 in    
Wind  
Wind Speed 23 mph (WNW)    
Max Wind Speed 36 mph    
Max Gust Speed 44 mph    
Visibility 10 miles    
Events      
Averages and records for this station are not official NWS values.
T = Trace of Precipitation, MM = Missing Value Source: NWS Daily Summary

Daily Weather History Graph

Daily Weather History Graph

Search for Another Location

Airport:

Trip Planner

Search our weather history database for the weather conditions in past years. The results will help you decide how hot, cold, wet, or windy it might be!

Date:

Astronomy

Feb. 18, 2013 Rise Set
Actual Time 7:13 AM CST 6:11 PM CST
Civil Twilight 6:46 AM CST 6:38 PM CST
Nautical Twilight 6:16 AM CST 7:08 PM CST
Astronomical Twilight 5:46 AM CST 7:38 PM CST
Moon 12:02 PM CST (2/18) 1:50 AM CST (2/18)
Length of Visible Light 11h 51m
Length of Day
10h 58m
First Quarter, 58% of the Moon is Illuminated
Feb 18
First Quarter
Feb 25
Full
Mar 4
Last Quarter
Mar 11
New
Mar 19
First Quarter

Hourly Weather History & Observations

Time (CST) Temp. Windchill Dew Point Humidity Pressure Visibility Wind Dir Wind Speed Gust Speed Precip Events Conditions
12:54 AM 55.0 °F - 33.1 °F 43% 29.60 in 10.0 mi South 25.3 mph 33.4 mph N/A   Clear
1:54 AM 55.9 °F - 35.1 °F 45% 29.57 in 10.0 mi South 29.9 mph 38.0 mph N/A   Clear
2:54 AM 55.9 °F - 37.0 °F 49% 29.55 in 10.0 mi South 27.6 mph 40.3 mph N/A   Clear
3:54 AM 55.0 °F - 39.0 °F 55% 29.54 in 10.0 mi South 26.5 mph 35.7 mph N/A   Clear
4:54 AM 54.0 °F - 42.1 °F 64% 29.54 in 10.0 mi South 25.3 mph 35.7 mph N/A   Clear
5:54 AM 53.1 °F - 43.0 °F 69% 29.53 in 10.0 mi South 24.2 mph 35.7 mph N/A   Clear
6:54 AM 53.1 °F - 44.1 °F 71% 29.53 in 10.0 mi SSW 23.0 mph 35.7 mph N/A   Clear
7:35 AM 51.8 °F - 44.6 °F 76% 29.55 in 10.0 mi SSW 27.6 mph 35.7 mph N/A   Mostly Cloudy
7:54 AM 52.0 °F - 45.0 °F 77% 29.56 in 10.0 mi SSW 23.0 mph 39.1 mph N/A   Mostly Cloudy
8:19 AM 48.2 °F - 35.6 °F 62% 29.58 in 10.0 mi WSW 26.5 mph 33.4 mph N/A   Scattered Clouds
8:54 AM 46.9 °F - 28.9 °F 50% 29.61 in 10.0 mi WSW 19.6 mph - N/A   Clear
9:54 AM 48.9 °F - 32.0 °F 52% 29.64 in 10.0 mi NW 25.3 mph 31.1 mph N/A   Clear
10:54 AM 51.1 °F - 33.1 °F 50% 29.70 in 10.0 mi NNW 29.9 mph 41.4 mph N/A   Clear
11:54 AM 48.0 °F - 30.9 °F 52% 29.78 in 10.0 mi NNW 35.7 mph 43.7 mph N/A   Overcast
12:54 PM 52.0 °F - 30.9 °F 45% 29.79 in 10.0 mi NNW 25.3 mph 38.0 mph N/A   Partly Cloudy
1:54 PM 54.0 °F - 30.0 °F 40% 29.82 in 10.0 mi NNW 28.8 mph 36.8 mph N/A   Clear
2:54 PM 52.0 °F - 30.0 °F 43% 29.85 in 10.0 mi NNW 25.3 mph 32.2 mph N/A   Clear
3:54 PM 53.1 °F - 27.0 °F 37% 29.87 in 10.0 mi NNW 25.3 mph 33.4 mph N/A   Partly Cloudy
4:54 PM 51.1 °F - 25.0 °F 36% 29.91 in 10.0 mi NNW 21.9 mph 29.9 mph N/A   Clear
5:54 PM 46.9 °F - 25.0 °F 42% 29.96 in 10.0 mi NNW 13.8 mph - N/A   Clear
6:54 PM 39.9 °F 35.1 °F 24.1 °F 53% 30.02 in 10.0 mi NNW 6.9 mph - N/A   Clear
7:54 PM 41.0 °F 34.3 °F 23.0 °F 49% 30.06 in 10.0 mi NNW 11.5 mph - N/A   Clear
8:54 PM 32.0 °F 26.4 °F 21.9 °F 66% 30.11 in 10.0 mi NNW 5.8 mph - N/A   Clear
9:54 PM 35.1 °F 32.2 °F 21.0 °F 57% 30.15 in 10.0 mi WNW 3.5 mph - N/A   Clear
10:54 PM 30.9 °F 25.2 °F 21.0 °F 67% 30.16 in 10.0 mi North 5.8 mph - N/A   Clear
11:54 PM 30.9 °F 26.2 °F 19.9 °F 64% 30.17 in 10.0 mi North 4.6 mph - N/A   Clear